Branson, MO

12:37 AM CST on November 23, 2017 (GMT -0600)
Branson

Weather History for KBBG - February, 2013

Change the Weather History Date:

Monday, February 25, 2013

  Actual Average (KHRO) Record (KHRO)
Temperature  
Mean Temperature 40 °F -  
Max Temperature 48 °F 52 °F 83 °F (1917)
Min Temperature 32 °F 32 °F 9 °F (1967)
Degree Days  
Heating Degree Days 25    
Moisture  
Dew Point 31 °F    
Average Humidity 81    
Maximum Humidity 100    
Minimum Humidity 46    
Precipitation  
Precipitation 0.07 in - - ()
Sea Level Pressure  
Sea Level Pressure 29.67 in    
Wind  
Wind Speed 10 mph (ENE)    
Max Wind Speed 21 mph    
Max Gust Speed 30 mph    
Visibility 8 miles    
Events Rain , Thunderstorm    
Averages and records for this station are not official NWS values.
T = Trace of Precipitation, MM = Missing Value Source: NWS Daily Summary

Daily Weather History Graph

Daily Weather History Graph

Search for Another Location

Airport or City:

Trip Planner

Search our weather history database for the weather conditions in past years. The results will help you decide how hot, cold, wet, or windy it might be!

Date:

Astronomy

Feb. 25, 2013 Rise Set
Actual Time 6:48 AM CST 6:03 PM CST
Civil Twilight 6:22 AM CST 6:29 PM CST
Nautical Twilight 5:52 AM CST 6:59 PM CST
Astronomical Twilight 5:22 AM CST 7:29 PM CST
Moon 6:15 PM CST (2/25) 6:19 AM CST (2/25)
Length of Visible Light 12h 07m
Length of Day
11h 15m
Full, 100% of the Moon is Illuminated
Feb 25
Full
Feb 25
Full
Mar 4
Last Quarter
Mar 11
New
Mar 19
First Quarter

Hourly Weather History & Observations

Time (CST) Temp. Windchill Dew Point Humidity Pressure Visibility Wind Dir Wind Speed Gust Speed Precip Events Conditions
12:15 AM 37.4 °F 30.8 °F 30.2 °F 75% 29.90 in 10.0 mi ESE 9.2 mph - N/A   Clear
12:35 AM 37.4 °F 31.4 °F 30.2 °F 75% 29.90 in 10.0 mi ESE 8.1 mph - N/A   Clear
12:55 AM 37.4 °F 31.4 °F 30.2 °F 75% 29.90 in 10.0 mi ESE 8.1 mph - N/A   Clear
1:15 AM 35.6 °F 29.2 °F 30.2 °F 81% 29.90 in 10.0 mi ESE 8.1 mph - N/A   Clear
1:55 AM 33.8 °F - 28.4 °F 81% 29.91 in 10.0 mi Calm Calm - N/A   Clear
2:15 AM 32.0 °F 28.7 °F 28.4 °F 87% 29.91 in 10.0 mi East 3.5 mph - N/A   Clear
2:35 AM 33.8 °F 27.0 °F 30.2 °F 87% 29.91 in 10.0 mi East 8.1 mph - N/A   Clear
2:55 AM 35.6 °F 28.6 °F 28.4 °F 75% 29.90 in 10.0 mi East 9.2 mph - N/A   Clear
3:15 AM 35.6 °F 28.6 °F 28.4 °F 75% 29.88 in 10.0 mi East 9.2 mph - N/A   Clear
3:35 AM 35.6 °F 28.0 °F 28.4 °F 75% 29.86 in 10.0 mi East 10.4 mph - N/A   Clear
3:55 AM 35.6 °F 28.6 °F 26.6 °F 70% 29.86 in 10.0 mi East 9.2 mph - N/A   Clear
4:15 AM 35.6 °F 29.9 °F 26.6 °F 70% 29.86 in 10.0 mi ESE 6.9 mph - N/A   Clear
4:35 AM 33.8 °F 27.0 °F 26.6 °F 75% 29.86 in 10.0 mi East 8.1 mph - N/A   Clear
4:55 AM 33.8 °F 26.4 °F 26.6 °F 75% 29.85 in 10.0 mi East 9.2 mph - N/A   Clear
5:15 AM 33.8 °F 25.8 °F 26.6 °F 75% 29.84 in 10.0 mi East 10.4 mph - N/A   Clear
6:52 AM 33.8 °F 25.3 °F 26.6 °F 75% 29.83 in 10.0 mi ESE 11.5 mph - N/A   Mostly Cloudy
7:51 AM 35.6 °F 26.2 °F 26.6 °F 70% 29.83 in 10.0 mi ESE 15.0 mph - N/A   Mostly Cloudy
8:50 AM 37.4 °F 28.9 °F 26.6 °F 65% 29.80 in 10.0 mi East 13.8 mph 19.6 mph N/A   Overcast
9:53 AM 39.2 °F 30.2 °F 26.6 °F 61% 29.78 in 10.0 mi East 17.3 mph - N/A   Overcast
10:50 AM 42.8 °F 34.5 °F 26.6 °F 53% 29.76 in 10.0 mi ESE 18.4 mph 25.3 mph N/A   Overcast
11:48 AM 44.6 °F 36.4 °F 26.6 °F 49% 29.69 in 10.0 mi East 20.7 mph 29.9 mph N/A   Overcast
12:52 PM 46.4 °F 39.2 °F 28.4 °F 50% 29.64 in 10.0 mi East 18.4 mph 29.9 mph N/A   Overcast
1:50 PM 48.2 °F - 28.4 °F 46% 29.60 in 10.0 mi East 17.3 mph 27.6 mph N/A   Overcast
2:53 PM 46.4 °F 41.9 °F 32.0 °F 57% 29.55 in 10.0 mi North 9.2 mph - N/A Rain , Thunderstorm Light Thunderstorms and Rain
3:46 PM 37.4 °F 27.8 °F 35.6 °F 93% 29.56 in 1.0 mi NNE 17.3 mph 26.5 mph N/A Rain , Thunderstorm Thunderstorms and Rain
4:06 PM 39.2 °F 32.0 °F 35.6 °F 87% 29.56 in 10.0 mi NE 11.5 mph 17.3 mph N/A   Overcast
4:45 PM 39.2 °F 31.2 °F 35.6 °F 87% 29.53 in 10.0 mi NE 13.8 mph 20.7 mph N/A   Overcast
5:45 PM 39.2 °F 33.0 °F 35.6 °F 87% 29.54 in 7.0 mi ENE 9.2 mph 21.9 mph N/A Rain Light Rain
6:50 PM 37.4 °F 32.8 °F 37.4 °F 100% 29.58 in 3.0 mi ENE 5.8 mph - N/A Rain Light Rain
7:55 PM 37.4 °F 29.3 °F 35.6 °F 93% 29.52 in 4.0 mi NE 12.7 mph 19.6 mph N/A Rain Light Rain
8:15 PM 37.4 °F 28.5 °F 35.6 °F 93% 29.48 in 3.0 mi ENE 15.0 mph 25.3 mph N/A Rain Light Rain
8:35 PM 35.6 °F 25.9 °F 35.6 °F 100% 29.47 in 4.0 mi NE 16.1 mph 25.3 mph N/A Rain Light Rain
8:45 PM 37.4 °F 29.8 °F 35.6 °F 93% 29.47 in 4.0 mi NE 11.5 mph 25.3 mph N/A Rain Light Rain
8:55 PM 35.6 °F 27.1 °F 35.6 °F 100% 29.45 in 6.0 mi NE 12.7 mph 20.7 mph 0.01 in   Overcast
9:15 PM 35.6 °F 27.1 °F 35.6 °F 100% 29.44 in 7.0 mi ENE 12.7 mph 18.4 mph N/A   Overcast
9:55 PM 37.4 °F 30.8 °F 35.6 °F 93% 29.44 in 9.0 mi ENE 9.2 mph 18.4 mph N/A   Overcast
10:15 PM 37.4 °F 30.8 °F 35.6 °F 93% 29.43 in 9.0 mi ENE 9.2 mph - N/A   Overcast
10:35 PM 37.4 °F 32.8 °F 35.6 °F 93% 29.42 in 3.0 mi NE 5.8 mph - 0.01 in Rain Light Rain
10:55 PM 37.4 °F 30.3 °F 35.6 °F 93% 29.41 in 3.0 mi ENE 10.4 mph - 0.02 in Rain Light Rain
11:15 PM 35.6 °F 32.8 °F 35.6 °F 100% 29.41 in 5.0 mi North 3.5 mph - N/A Rain Light Rain
11:35 PM 35.6 °F - 35.6 °F 100% 29.42 in 2.0 mi Calm Calm - N/A Rain Light Rain
11:55 PM 35.6 °F 31.7 °F 35.6 °F 100% 29.41 in 1.8 mi NNW 4.6 mph - 0.04 in Rain Rain